OpenBCM V1.08-5-g2f4a (Linux)

Packet Radio Mailbox

IZ3LSV

[San Dona' di P. JN]

 Login: GUEST





  
I0OJJ  > KEPS     27.03.25 02:25l 328 Lines 15596 Bytes #8 (0) @ AMSAT
BID : ORB25086.1
Read: GUEST
Subj: 2Line Orbital Elements 25086.AMSAT
Path: IZ3LSV<I0OJJ
Sent: 250327/0025z @:I0OJJ.ITA.EU [Rome] obcm1.08-6-g5b69
From: I0OJJ @ I0OJJ.ITA.EU (Gustavo)
To:   KEPS @ AMSAT
X-Info: This message was generated automatically


QST de W1STR

AMSAT Orbital Elements for Amateur Satellites in TLE Format
From Orbital Analysis Office
New England Sci-Tech STEM Education Center
Natick, MA March 27, 2025
To all radio amateurs


These element sets describe the orbits of various satellites 
in use by the amateur radio community. For details see:
www.amsat.org/keplerian-elements-formats/

A daily update of element sets is available at:
www.amsat.org/tle/daily-bulletin.txt
or without bulletin text:
www.amsat.org/tle/dailytle.txt


AO-07
1 07530U 74089B   25085.49601168 -.00000009  00000-0  23791-3 0  9993
2 07530 101.9955  88.9562 0011872 265.2911 247.3860 12.53687704304415
UO-11
1 14781U 84021B   25085.48291701  .00004043  00000-0  43519-3 0  9994
2 14781  97.7459  53.3898 0006655 214.9581 145.1200 14.89017938190465
AO-27
1 22825U 93061C   25085.60079201  .00000439  00000-0  18494-3 0  9998
2 22825  98.7452 146.7550 0007863 339.9896  20.0977 14.30760711642990
FO-29
1 24278U 96046B   25085.48587970 -.00000007  00000-0  28356-4 0  9992
2 24278  98.5835 349.2392 0350007 176.9626 183.3755 13.53241613412612
NOAA-15
1 25338U 98030A   25085.85396793  .00000601  00000-0  26515-3 0  9990
2 25338  98.5436 112.7577 0009672 212.2122 147.8469 14.26924180397740
GO-32
1 25397U 98043D   25085.52517546  .00000382  00000-0  18550-3 0  9990
2 25397  98.9642  63.1045 0002347  75.8636 284.2802 14.24282644387603
ISS
1 25544U 98067A   25085.87043683  .00031712  00000-0  55896-3 0  9999
2 25544  51.6398 354.7310 0003795  53.7712  62.8191 15.50119906502399
NO-44
1 26931U 01043C   25085.06010383  .00000657  00000-0  27726-3 0  9995
2 26931  67.0517 323.0923 0005578 267.9828  92.0635 14.31673020226291
SO-50
1 27607U 02058C   25085.35413015  .00005879  00000-0  75545-3 0  9997
2 27607  64.5532  72.6868 0047602 352.2242   7.8119 14.81248510198081
CO-55
1 27844U 03031E   25085.49461024  .00001196  00000-0  54080-3 0  9999
2 27844  98.6794  94.7308 0010545  50.6743 309.5369 14.23901652127953
CO-57
1 27848U 03031J   25085.47852846  .00001016  00000-0  46782-3 0  9998
2 27848  98.6819  94.7766 0010641  65.9802 294.2489 14.23249836127687
RS-22
1 27939U 03042A   25085.56973867  .00003881  00000-0  62551-3 0  9992
2 27939  98.3199 253.2481 0010610 244.8078 179.6412 14.72032236149663
NOAA-18
1 28654U 05018A   25085.80604320  .00000574  00000-0  32781-3 0  9992
2 28654  98.8448 166.1184 0013646 345.8664  14.2125 14.13557140 23181
CO-58
1 28895U 05043F   25085.82243311  .00006896  00000-0  11409-2 0  9994
2 28895  98.2364 229.3075 0014929 180.2748 179.8453 14.70568067 36188
CO-65
1 32785U 08021C   25085.42198223  .00014545  00000-0  10768-2 0  9990
2 32785  97.7770  56.1212 0012502 102.6584 257.6039 15.03193539917780
AAUSAT2
1 32788U 08021F   25085.54711320  .00218048  00000-0  25806-2 0  9998
2 32788  97.6054  79.6433 0005392 132.1645 228.0070 15.60523756921588
CO-66
1 32791U 08021J   25085.86644977  .00035094  00000-0  18223-2 0  9993
2 32791  97.7227  64.3962 0006979  77.1399 283.0612 15.16001969919240
RS-30
1 32953U 08025A   25085.79773830  .00000060  00000-0  36425-3 0  9990
2 32953  82.4975 273.6965 0019121 206.6958 153.3139 12.43160861764247
NOAA-19
1 33591U 09005A   25085.80026053  .00000538  00000-0  31087-3 0  9997
2 33591  99.0048 150.0639 0013367 211.1412 148.8969 14.13323012831545
SRMSAT
1 37841U 11058D   25085.58707248  .00000760  00000-0  26978-3 0  9997
2 37841  19.9713 248.3551 0011739 320.5327 104.2796 14.11396234694503
ZACUBE-1
1 39417U 13066B   25085.61699677  .00014064  00000-0  12480-2 0  9993
2 39417  97.7714  43.1143 0043141 304.0979  55.6151 14.95567599613702
Delfi-N3xt
1 39428U 13066N   25085.83754307  .00018986  00000-0  19906-2 0  9998
2 39428  97.8363   4.3996 0085186 246.1175 113.1098 14.86901499608142
GOMX-1
1 39430U 13066Q   25085.89069807  .00006418  00000-0  10015-2 0  9990
2 39430  97.6948 309.1143 0134854  71.6419 289.9399 14.67200381604458
LO-74
1 39440U 13066AA  25085.57536655  .00012335  00000-0  12676-2 0  9996
2 39440  97.8426  30.7303 0065254  68.1408 292.6732 14.88900744610275
AO-73
1 39444U 13066AE  25085.44910854  .00021692  00000-0  16863-2 0  9991
2 39444  97.7631  47.2241 0039271 280.9668  78.7139 15.00690288612317
DTUSAT-2
1 40030U 14033W   25085.42416693  .00019873  00000-0  13399-2 0  9998
2 40030  98.0482  53.7202 0007848 328.4214  31.6540 15.06669938585077
EO-80
1 40032U 14033Y   25085.84663697  .00020028  00000-0  13468-2 0  9995
2 40032  98.0370  53.9192 0006566 248.5326 111.5200 15.06774093585639
LILACSAT-2
1 40908U 15049K   25085.84828224  .00028349  00000-0  79352-3 0  9993
2 40908  97.5132 104.4797 0011661  74.3134 285.9395 15.36540147526740
IO-86
1 40931U 15052B   25038.81889873  .00001817  00000-0  15548-3 0  9993
2 40931   6.0001 108.1159 0012838 187.7041 172.2889 14.78568669506492
Horyu-4
1 41340U 16012D   25085.63274633  .00042418  00000-0  13041-2 0  9996
2 41340  30.9969 274.4783 0008667   4.5132 355.5590 15.32432637501269
Lapan A3
1 41603U 16040E   25085.85422566  .00008391  00000-0  29907-3 0  9994
2 41603  97.1394  93.4218 0011619 166.1000 194.0562 15.29088963486363
CAS-2T
1 41847U 16066G   25085.60625590  .00003570  00000-0  51385-3 0  9996
2 41847  98.4250 160.7145 0347845  45.4456 317.4584 14.43231781440203
CAS-4B
1 42759U 17034B   25085.86359036  .00097101  00000-0  15050-2 0  9993
2 42759  43.0103  43.9092 0016389 132.5851 227.6396 15.52836791430941
CAS-4A
1 42761U 17034D   25085.87875060  .00101281  00000-0  15295-2 0  9993
2 42761  43.0141  41.5830 0017860 137.9709 222.2526 15.53504991430969
TechnoSat
1 42829U 17042E   25085.73462436  .00009351  00000-0  73583-3 0  9991
2 42829  97.3907 258.0336 0013376 169.2683 190.8829 15.00961368419497
AO-91
1 43017U 17073E   25085.54626628  .00018590  00000-0  97415-3 0  9994
2 43017  97.5373 318.2491 0179276  62.1787 299.7479 15.02927302397931
S-Net D
1 43186U 18014G   25085.28693038  .00014714  00000-0  89045-3 0  9991
2 43186  97.5690 348.9904 0010909 118.5972 241.6356 15.10675866391004
S-Net B
1 43187U 18014H   25085.29140050  .00014248  00000-0  86265-3 0  9997
2 43187  97.5695 348.9630 0011780 114.2798 245.9664 15.10657865391001
S-Net A
1 43188U 18014J   25085.48628384  .00013470  00000-0  81532-3 0  9998
2 43188  97.5706 349.2964 0011546 114.7725 245.4707 15.10683677391030
S-Net C
1 43189U 18014K   25085.29364004  .00013952  00000-0  84457-3 0  9998
2 43189  97.5717 349.1072 0013265 109.1335 251.1332 15.10653785389556
Ten-Koh
1 43677U 18084G   25085.43349595  .00008466  00000-0  68486-3 0  9999
2 43677  98.0961 254.6931 0010451 158.6604 201.5056 14.99992856348975
PO-101
1 43678U 18084H   25085.84859036  .00006871  00000-0  58992-3 0  9990
2 43678  98.0989 259.1628 0008385 167.9049 192.2375 14.97781112349192
QO-100
1 43700U 18090A   25085.18808714  .00000141  00000-0  00000-0 0  9995
2 43700   0.0032  95.2213 0001389 302.4219 239.7465  1.00270763 23181
MinXSS-2
1 43758U 18099A   25085.56039946  .00033250  00000-0  14304-2 0  9993
2 43758  97.5108 151.4848 0013196  65.6463 294.6149 15.22480101345540
AO-95
1 43770U 18099N   25084.89472326  .00021718  00000-0  11545-2 0  9995
2 43770  97.5024 143.8782 0012676 115.2805 244.9742 15.15227139345085
RANGE-A
1 43773U 18099R   25085.85142544  .00014098  00000-0  91583-3 0  9995
2 43773  97.4591 136.4290 0013396  90.6249 269.6514 15.08063042344955
MOVE-II
1 43780U 18099Y   25085.47050129  .00170993  00000-0  29335-2 0  9990
2 43780  97.4743 156.9147 0001699  94.6673 265.4773 15.50557660346075
SNUSat 2
1 43782U 18099AA  25085.12460861  .00017933  00000-0  10176-2 0  9999
2 43782  97.4703 141.4529 0013410  60.5681 299.6886 15.12929476345081
SnugLite
1 43784U 18099AC  25085.60086242  .00020576  00000-0  10856-2 0  9993
2 43784  97.4517 141.3449 0004718  73.7278 286.4474 15.15565194345279
ITASat 1
1 43786U 18099AE  25085.58167587  .00015804  00000-0  93227-3 0  9996
2 43786  97.4662 141.6181 0016254 105.7855 254.5169 15.11523799345125
EAGLET 1
1 43790U 18099AJ  25085.60226432  .00010794  00000-0  70146-3 0  9997
2 43790  97.4866 141.8202 0014036  88.8329 271.4507 15.08108464344762
ESEO
1 43792U 18099AL  25085.74288945  .00005455  00000-0  41774-3 0  9994
2 43792  97.4597 136.1900 0012552  62.1002 298.1493 15.02196797344581
CSIM
1 43793U 18099AM  25085.57719518  .00139923  00000-0  23641-2 0  9991
2 43793  97.4933 159.1249 0003567  26.5228 333.6205 15.51101477345938
JO-97
1 43803U 18099AX  25085.59233973  .00025474  00000-0  12374-2 0  9997
2 43803  97.4758 145.4220 0008361  56.8485 303.3550 15.18402678345386
Suomi 100
1 43804U 18099AY  25085.62648758  .00021399  00000-0  11014-2 0  9995
2 43804  97.4831 144.9451 0013657  54.9450 305.3061 15.16360957345339
ISAT
1 43879U 18111D   25085.32416016  .00045198  00000-0  17558-2 0  9991
2 43879  97.6003 358.2441 0012350 100.3542 259.9089 15.25854476342201
UWE-4
1 43880U 18111E   25085.19116065  .00036640  00000-0  15644-2 0  9995
2 43880  97.5945 357.0691 0015209 110.7362 249.5505 15.22688859342140
Sparrow
1 43881U 18111F   25085.49270877  .00042497  00000-0  16025-2 0  9992
2 43881  97.6141   1.0218 0009668 128.7678 231.4425 15.26886308342315
Prox-1
1 44339U 19036A   25085.59340713  .00022258  00000-0  29953-2 0  9993
2 44339  23.9972 193.6321 0006416 301.6287  58.3584 14.77720864306903
SONATE
1 44400U 19038Q   25085.48853757  .00130453  00000-0  12051-2 0  9997
2 44400  97.7045 103.8945 0010295 152.7078 207.4725 15.67091066317721
Taurus 1
1 44530U 19059C   25085.81247798  .00022694  00000-0  43008-2 0  9996
2 44530  98.5957 221.7740 0009913 258.8416 101.1671 14.64238970292992
